Casper, WY

5:51 AM MDT on July 23, 2017 (GMT -0600)
Natrona County International

Weather History for KCPR - January, 2014

Change the Weather History Date:

Tuesday, January 14, 2014

  Actual Average Record
Temperature  
Mean Temperature 24 °F 25 °F  
Max Temperature 29 °F 35 °F 55 °F (1995)
Min Temperature 18 °F 15 °F -40 °F (1972)
Degree Days  
Heating Degree Days 41 40  
Month to date heating degree days 591 565  
Since 1 July heating degree days 3811 3694  
Cooling Degree Days 0 0  
Month to date cooling degree days 0 0  
Year to date cooling degree days 0 0  
Moisture  
Dew Point 20 °F    
Average Humidity 82    
Maximum Humidity 96    
Minimum Humidity 68    
Precipitation  
Precipitation 0.26 in 0.02 in 0.26 in (1953)
Month to date precipitation 0.58 0.23  
Year to date precipitation 0.58 0.23  
Snow  
Snow 4.00 in 0.20 in - ()
Month to date snowfall 10.2 4.2  
Since 1 July snowfall 50.7 34.7  
Snow Depth 4.00 in    
Sea Level Pressure  
Sea Level Pressure 30.32 in    
Wind  
Wind Speed 10 mph (NNW)    
Max Wind Speed 21 mph    
Max Gust Speed 25 mph    
Visibility 4 miles    
Events Fog , Snow    
T = Trace of Precipitation, MM = Missing Value Source: NWS Daily Summary

Daily Weather History Graph

Daily Weather History Graph

Search for Another Location

Airport or City:

Trip Planner

Search our weather history database for the weather conditions in past years. The results will help you decide how hot, cold, wet, or windy it might be!

Date:

Astronomy

Jan. 14, 2014 Rise Set
Actual Time 7:34 AM MST 4:55 PM MST
Civil Twilight 7:03 AM MST 5:27 PM MST
Nautical Twilight 6:27 AM MST 6:02 PM MST
Astronomical Twilight 5:53 AM MST 6:36 PM MST
Moon 4:04 PM MST (1/14) 6:10 AM MST (1/14)
Length of Visible Light 10h 24m
Length of Day
9h 21m
Waxing Gibbous, 98% of the Moon is Illuminated
Jan 14
Waxing Gibbous
Jan 15
Full
Jan 23
Last Quarter
Jan 30
New
Feb 6
First Quarter

Hourly Weather History & Observations

Time (MST) Temp. Windchill Dew Point Humidity Pressure Visibility Wind Dir Wind Speed Gust Speed Precip Events Conditions
12:12 AM 27.0 °F 13.9 °F 23.0 °F 85% 30.11 in 2.5 mi North 18.4 mph 24.2 mph 0.00 in Snow Light Snow
12:20 AM 26.1 °F 12.7 °F 23.0 °F 88% 30.11 in 1.0 mi NNE 18.4 mph 24.2 mph 0.01 in Snow Light Snow
12:24 AM 26.1 °F 14.5 °F 23.0 °F 88% 30.11 in 0.8 mi NNE 13.8 mph - 0.01 in Snow Light Snow
12:51 AM 24.8 °F 16.9 °F 23.0 °F 93% 30.11 in 1.2 mi NE 6.9 mph - 0.03 in Snow Light Snow
12:53 AM 25.0 °F 17.1 °F 23.0 °F 92% 30.17 in 1.2 mi NE 6.9 mph - 0.03 in Snow Light Snow
1:05 AM 25.0 °F 14.8 °F 23.0 °F 92% 30.12 in 0.8 mi NNE 10.4 mph - 0.01 in Snow Light Snow
1:12 AM 25.0 °F 14.8 °F 23.0 °F 92% 30.13 in 1.2 mi NNE 10.4 mph - 0.01 in Snow Light Snow
1:39 AM 25.0 °F 17.1 °F 23.0 °F 92% 30.15 in 0.8 mi Variable 6.9 mph - 0.03 in Snow Light Snow
1:53 AM 25.0 °F 15.5 °F 21.9 °F 88% 30.21 in 0.8 mi NNE 9.2 mph - 0.05 in Snow Light Snow
2:00 AM 25.0 °F 18.1 °F 23.0 °F 92% 30.16 in 1.0 mi NNE 5.8 mph - 0.01 in Snow Light Snow
2:31 AM 25.0 °F 19.3 °F 21.9 °F 88% 30.18 in 0.8 mi NE 4.6 mph - 0.03 in Snow Light Snow
2:46 AM 25.0 °F 20.7 °F 23.0 °F 92% 30.21 in 1.0 mi NNE 3.5 mph - 0.04 in Snow Light Snow
2:53 AM 25.0 °F 20.7 °F 23.0 °F 92% 30.27 in 0.8 mi NNE 3.5 mph - 0.04 in Snow Light Snow
3:09 AM 24.1 °F - 23.0 °F 96% 30.20 in 0.5 mi Calm Calm - 0.02 in Fog , Snow Snow
3:22 AM 25.0 °F 20.7 °F 21.9 °F 88% 30.20 in 1.0 mi North 3.5 mph - 0.03 in Snow Light Snow
3:30 AM 25.0 °F 19.3 °F 21.9 °F 88% 30.20 in 2.0 mi North 4.6 mph - 0.03 in Snow Light Snow
3:42 AM 25.0 °F 18.1 °F 21.9 °F 88% 30.22 in 3.0 mi NNE 5.8 mph - 0.03 in Snow Light Snow
3:53 AM 24.1 °F 18.2 °F 21.9 °F 91% 30.30 in 3.0 mi North 4.6 mph - 0.03 in Snow Light Snow
3:55 AM 24.1 °F 19.7 °F 21.9 °F 91% 30.24 in 2.5 mi NNE 3.5 mph - 0.00 in Snow Light Snow
4:05 AM 25.0 °F 20.7 °F 21.9 °F 88% 30.24 in 1.2 mi North 3.5 mph - 0.01 in Snow Light Snow
4:26 AM 25.0 °F - 21.9 °F 88% 30.23 in 1.0 mi Calm Calm - 0.02 in Snow Light Snow
4:39 AM 24.1 °F 16.0 °F 21.0 °F 88% 30.23 in 2.0 mi NE 6.9 mph - 0.02 in Snow Light Snow
4:49 AM 24.8 °F 15.3 °F 21.2 °F 86% 30.24 in 1.8 mi NNE 9.2 mph - 0.03 in Snow Light Snow
4:53 AM 24.1 °F 13.7 °F 21.0 °F 88% 30.31 in 2.0 mi NNE 10.4 mph - 0.03 in Snow Light Snow
5:01 AM 24.1 °F 14.4 °F 19.9 °F 84% 30.25 in 1.2 mi North 9.2 mph - 0.00 in Snow Light Snow
5:53 AM 23.0 °F 10.1 °F 19.9 °F 88% 30.36 in 1.5 mi North 15.0 mph - 0.02 in Snow Light Snow
6:18 AM 23.0 °F 13.9 °F 19.9 °F 88% 30.29 in 2.5 mi NNW 8.1 mph - 0.00 in Snow Light Snow
6:35 AM 23.0 °F 13.1 °F 19.9 °F 88% 30.29 in 4.0 mi NNW 9.2 mph - 0.00 in Snow Light Snow
6:53 AM 23.0 °F 12.4 °F 19.9 °F 88% 30.40 in 3.0 mi North 10.4 mph - 0.01 in Snow Light Snow
7:06 AM 23.0 °F 12.4 °F 19.9 °F 88% 30.31 in 1.8 mi North 10.4 mph - 0.00 in Snow Light Snow
7:40 AM 23.0 °F 13.1 °F 21.0 °F 92% 30.33 in 2.5 mi North 9.2 mph - 0.01 in Snow Light Snow
7:53 AM 23.0 °F 12.4 °F 21.0 °F 92% 30.43 in 0.8 mi North 10.4 mph - 0.01 in Snow Light Snow
8:05 AM 23.0 °F 13.9 °F 21.0 °F 92% 30.34 in 0.8 mi North 8.1 mph - 0.00 in Snow Light Snow
8:30 AM 23.0 °F 15.8 °F 21.0 °F 92% 30.35 in 1.0 mi North 5.8 mph - 0.01 in Snow Light Snow
8:45 AM 23.0 °F 15.8 °F 19.9 °F 88% 30.36 in 2.0 mi NNW 5.8 mph - 0.01 in Snow Light Snow
8:53 AM 23.0 °F 15.8 °F 21.0 °F 92% 30.49 in 1.2 mi NW 5.8 mph - 0.01 in Snow Light Snow
9:10 AM 23.0 °F 15.8 °F 21.0 °F 92% 30.38 in 0.8 mi SW 5.8 mph - 0.01 in Snow Light Snow
9:38 AM 24.1 °F 18.2 °F 21.9 °F 91% 30.39 in 0.8 mi WSW 4.6 mph - 0.02 in Snow Light Snow
9:49 AM 24.8 °F 16.9 °F 21.2 °F 86% 30.38 in 0.8 mi WSW 6.9 mph - 0.02 in Snow Light Snow
9:53 AM 24.1 °F 17.0 °F 21.0 °F 88% 30.50 in 1.0 mi West 5.8 mph - 0.02 in Snow Light Snow
10:07 AM 24.1 °F 18.2 °F 21.0 °F 88% 30.38 in 0.8 mi West 4.6 mph - 0.00 in Snow Light Snow
10:22 AM 24.1 °F - 21.0 °F 88% 30.39 in 1.8 mi North - - 0.01 in Snow Light Snow
10:25 AM 24.1 °F - 21.0 °F 88% 30.38 in 3.0 mi North - - 0.01 in Snow Light Snow
10:38 AM 25.0 °F 19.3 °F 21.0 °F 85% 30.39 in 10.0 mi West 4.6 mph - 0.01 in   Overcast
10:53 AM 25.0 °F 19.3 °F 19.9 °F 81% 30.50 in 5.0 mi West 4.6 mph - 0.01 in Snow Light Snow
11:53 AM 25.0 °F 13.6 °F 19.9 °F 81% 30.50 in 10.0 mi West 12.7 mph - 0.00 in   Overcast
12:53 PM 25.0 °F 15.5 °F 19.0 °F 78% 30.48 in 10.0 mi WSW 9.2 mph - N/A   Scattered Clouds
1:53 PM 26.1 °F 16.2 °F 19.0 °F 75% 30.46 in 10.0 mi WSW 10.4 mph - N/A   Scattered Clouds
2:53 PM 26.1 °F 16.8 °F 19.9 °F 78% 30.48 in 10.0 mi WSW 9.2 mph - N/A   Overcast
3:53 PM 24.1 °F 14.4 °F 18.0 °F 77% 30.47 in 10.0 mi WSW 9.2 mph - N/A   Clear
4:53 PM 27.0 °F 16.7 °F 18.0 °F 69% 30.45 in 10.0 mi SW 11.5 mph - N/A   Mostly Cloudy
5:53 PM 26.1 °F 14.0 °F 18.0 °F 71% 30.46 in 10.0 mi WSW 15.0 mph - N/A   Mostly Cloudy
6:53 PM 19.9 °F 10.1 °F 15.1 °F 81% 30.48 in 10.0 mi WSW 8.1 mph - N/A   Clear
7:53 PM 19.0 °F 6.8 °F 14.0 °F 81% 30.47 in 10.0 mi WSW 11.5 mph - N/A   Clear
8:53 PM 19.9 °F - 14.0 °F 78% 30.45 in 10.0 mi North - - N/A   Clear
9:53 PM 19.9 °F 8.6 °F 14.0 °F 78% 30.43 in 10.0 mi WSW 10.4 mph - N/A   Clear
10:53 PM 24.1 °F 12.0 °F 16.0 °F 71% 30.38 in 10.0 mi WSW 13.8 mph - N/A   Clear
11:53 PM 26.1 °F 16.2 °F 17.1 °F 69% 30.35 in 10.0 mi WSW 10.4 mph - N/A   Mostly Cloudy